Back to catalog

SL-14 DEB

AlivePO
NORAD 45275·DEBRIS·🇷🇺 Russia

Launched Aug 15, 1991 from Plesetsk Cosmodrome

Loading…

Next Passes (next 24 hours)

TLE

FreshSource: Space-Track

Epoch: Sep 14, 2026, 06:13 UTC

1 45275U 91056M   26257.25914989  .00000060  00000-0  11261-3 0  9993
2 45275  82.5815  67.7715 0030226  98.4806 261.9747 13.22383538317673

Track SL-14 DEB in real time with AllMySat

Download on the App Store